Skip Navigation Links
NOAA logo - Click to go to the NOAA homepage
NOAA's National Weather Service
Alaska Aviation Weather Unit
  NWS logo - Click to go to the NWS homepage
Left Navbar Graphic     22 AKDT = 06 GMT

   
NOAA is celebrating 200 years of science, service, and stewardship. Visit the NOAA 200th celebration Web site to learn more.
USA.gov is the U.S. Government's official Web portal to all Federal, state and local government Web resources and services.
Facebook
NWS on Facebook

Important Change Regarding the AAWU Web Presence

 

Over the last several months, the AAWU has been working to navigate its webpages to a nationally supported server. Security, as well as other needs, have necessitated the change.  In the process, we have made an effort to enhance the functionality of our website, as well as some of our products. As of June 20, 2017, aawu.arh.noaa.gov will be discontinued. The new AAWU web address is weather.gov/aawu. It is now live and will run in-parallel with the old site until it is discontinued. Please send any feedback or questions regarding the new webpages to nws.ar.aawu.webauthors@noaa.gov.  Thank you for your patience during this time of transition.
AAWU Home :: Display TAF Add Bookmark
SPECI PAJC 280039Z AUTO 04010KT 10SM SCT016 BKN023 OVC030 07/03 A2985
     RMK AO2 RAE24 P0001=

METAR PAJC 280056Z AUTO 05010G16KT 10SM FEW016 BKN029 BKN037 07/03 A2985
     RMK AO2 RAE24 SLP109 P0001 T00670033=

METAR PAJC 280156Z AUTO 02009KT 10SM SCT017 BKN026 08/04 A2984 RMK AO2
     SLP105 T00780039=

SPECI PAJC 280312Z AUTO 04004KT 10SM BKN016 BKN023 OVC033 07/03 A2984
     RMK AO2=

METAR PAJC 280456Z AUTO 02007KT 10SM SCT015 BKN037 07/03 A2981 RMK
 AO2 SLP096 T00670033=

METAR PAJC 280556Z AUTO 08005KT 10SM FEW015 OVC035 06/03 A2981 RMK
 AO2 SLP095 60001 T00610033 10078 20061 56010=


NOAA's National Weather Service
Alaska Aviation Weather Unit
6930 Sand Lake Road
Anchorage, AK 99502-1845
Disclaimer
Credits
Glossary
Privacy Policy
About Us
Career Opportunities
Contact AAWU Internet Services Site last modified: April, 17th 2012